Regional Weather Roundup
Issued by NWS Midland/Odessa, TX

Home | Current Version | Previous Version | Text Only | Print | Product List | Glossary On
Versions: 1 2 3 4 5 6 7 8 9 10 11 12 13 14 15 16 17 18 19 20 21 22 23 24 25 26 27 28 29 30 31 32 33 34 35 36 37 38 39 40 41 42 43 44 45 46 47 48 49 50
000
ASUS44 KMAF 272110
RWRMAF
MIDLAND AREA WEATHER ROUNDUP
NATIONAL WEATHER SERVICE MIDLAND TX
400 PM CDT WED AUG 27 2014

...IN SOUTHWEST TEXAS AND SOUTHEAST NEW MEXICO...

CITY           SKY/WX    TMP DP  RH WIND       PRES   REMARKS
ALPINE         MOSUNNY   89  49  25 N7        30.21F
ANDREWS        FAIR      94  54  25 SW7       30.07F
ARTESIA        NOT AVBL
BIG SPRING     SUNNY    100  55  22 SE8       30.05F
CARLSBAD       CLOUDY    84  57  39 NW7       30.10F
DRYDEN           N/A    102  56  21 SE9G22    30.00F HX 101
FORT STOCKTON  MOSUNNY   94  50  22 E8        30.06F
GUAD PASS      LGT RAIN  78  54  43 W3        30.27F
HOBBS          PTSUNNY   91  50  24 S9        30.11F
MARFA          CLOUDY    84  50  30 N8        30.21F
MIDLAND AIRPK  MOSUNNY   96  55  24 SE12      30.05F
MIDLAND INTL   PTSUNNY   95  56  26 SE8       30.05F
ODESSA         PTSUNNY   95  53  24 SW8       30.06F
PECOS          SUNNY     97  53  22 E5        30.03F
PRESIDIO       FAIR      97  53  22 W10       30.02F
SEMINOLE       MOSUNNY   92  51  24 S7        30.09F
SNYDER         PTSUNNY   95  58  28 E5        30.03F
WINK           MOSUNNY   97  51  21 S9G22     30.02F
$$
...OTHER STATIONS IN TEXAS...

CITY           SKY/WX    TMP DP  RH WIND       PRES   REMARKS
ABILENE        MOSUNNY   96  59  29 SE9       30.00F
AMARILLO       MOSUNNY   89  58  34 S21       30.08F
AUSTIN         MOSUNNY   96  60  30 E9        29.94F
BROWNSVILLE    PTSUNNY   92  75  57 N10       29.87F HX 103
CORPUS CHRISTI PTSUNNY   96  73  47 E20G26    29.89F HX 105
DALLAS FTW     PTSUNNY   94  66  39 SE8G17    29.99F
DEL RIO        PTSUNNY   98  64  32 E10       29.94F HX 100
EL PASO        PTSUNNY   85  59  41 SW7       30.13F
HOUSTON INT    CLOUDY    86  73  66 SE21      29.95F
LUBBOCK        PTSUNNY   94  56  27 S13G18    30.07F
SAN ANGELO     SUNNY     96  63  33 E14       30.01F
SAN ANTONIO    MOSUNNY   96  63  33 NE9       29.95F
WACO           SUNNY     96  62  32 E12       29.97F
WICHITA FALLS  NOT AVBL
$$
...OTHER LOCATIONS IN NEW MEXICO...

CITY           SKY/WX    TMP DP  RH WIND       PRES   REMARKS
ALAMAGORDO     MOSUNNY   82  55  39 S6        30.18F
ALBUQUERQUE    CLOUDY    78  50  37 W5        30.25F
CANNON AFB     MOSUNNY   85  58  39 W12       30.15F
CLOVIS           N/A     86  57  37 SW10      30.17F
HOLLOMAN AFB   MOSUNNY   84  61  45 SW2       30.15F
ROSWELL        PTSUNNY   85  60  42 S8        30.12F
RUIDOSO        MOSUNNY   73  57  56 N9G16     30.35F
SANTA FE       PTSUNNY   74  49  41 VRB6      30.28F
TRUTH OR CONSE CLOUDY    79  57  46 VRB3      30.21F
TUCUMCARI      MOSUNNY   88  52  29 SW15      30.10F
$$


USA.gov is the U.S. government's official web portal to all federal, state and local government web resources and services.